Content
SEND FEEDBACK

Daily
Averages
Monthly
Summary
United States of America

KENNEY, TEXAS


Home > North America > United States > Texas
Elevation: 354 feet     Latitude: 30 09N     Longitude: 096 24W

WEATHER
 
SELECT A DAY
Number of Records: 646,761;   Date Range: 6/11/00 - 9/16/14
 
SHARE

PRINT THIS DATA

[ ← Previous Day ]
WEATHER ALMANAC - JANUARY 31, 2013
[ Next Day → ]
[ °C ]   °F
Weather ElementAverageHighLow
Temperature51.6 °F69.8 °F (3:55 pm)33.8 °F (4:55 am)
Dewpoint26.4 °F35.6 °F (11:35 pm)12.2 °F (2:15 pm)
Humidity47.5 %93 % (4:55 am)12 % (2:15 pm)
Barometer30.26 in30.32 in (9:35 am)30.20 in (5:15 pm)
Wind Speed5 mph13.8 mph (11:55 am)
Wind Gust20.7 mph (12:35 pm)
Weather ElementAverage
Visibility10 mi
Wind DirectionESE (129.3 °)

Weather ElementTotal
Precipitation---
Heating Degree Days13.2 (Base 65)
Growing Degree Days1.8 (Base 50)
Averaged from 71 records on January 31, 2013
WEATHER CONDITIONS BREAKOUT
WIND DIRECTION BREAKOUT
WEATHER BY HOUR - JANUARY 31, 2013
[ °C ]   °F
Local TimeTemperatureDewpointHumidityBarometerVisibilityWind DirectionWind SpeedGust SpeedPrecipitationEventsConditions
12:35 AM39.2 °F32.0 °F75 %30.24 in10.0 miCalmClear
12:55 AM35.6 °F32.0 °F87 %30.26 in10.0 miSSW (200°)3.5 mphClear
1:15 AM35.6 °F32.0 °F87 %30.24 in10.0 miCalmClear
1:35 AM37.4 °F32.0 °F81 %30.25 in10.0 miCalmClear
1:55 AM35.6 °F32.0 °F87 %30.23 in10.0 miCalmClear
2:15 AM37.4 °F30.2 °F75 %30.23 in10.0 miCalmClear
2:35 AM35.6 °F32.0 °F87 %30.22 in10.0 miCalmClear
2:55 AM35.6 °F32.0 °F87 %30.22 in10.0 miCalmClear
3:15 AM35.6 °F32.0 °F87 %30.22 in10.0 miCalmClear
3:35 AM35.6 °F32.0 °F87 %30.22 in10.0 miCalmClear
3:55 AM35.6 °F32.0 °F87 %30.22 in10.0 miCalmClear
4:15 AM35.6 °F32.0 °F87 %30.21 in10.0 miCalmClear
4:35 AM35.6 °F32.0 °F87 %30.22 in10.0 miCalmClear
4:55 AM33.8 °F32.0 °F93 %30.22 in10.0 miCalmClear
5:15 AM33.8 °F30.2 °F87 %30.22 in10.0 miCalmClear
5:35 AM33.8 °F32.0 °F93 %30.22 in10.0 miCalmClear
5:55 AM33.8 °F32.0 °F93 %30.23 in10.0 miCalmClear
6:15 AM33.8 °F30.2 °F87 %30.25 in10.0 miCalmClear
6:35 AM33.8 °F30.2 °F87 %30.23 in10.0 miCalmClear
6:55 AM37.4 °F28.4 °F70 %30.25 in10.0 miCalmClear
7:15 AM35.6 °F30.2 °F81 %30.27 in10.0 miWSW (240°)3.5 mphClear
7:35 AM37.4 °F28.4 °F70 %30.27 in10.0 miCalmClear
7:55 AM37.4 °F28.4 °F70 %30.28 in10.0 miCalmClear
8:15 AM39.2 °F30.2 °F70 %30.29 in10.0 miCalmClear
8:35 AM42.8 °F32.0 °F66 %30.30 in10.0 miCalmClear
8:55 AM46.4 °F32.0 °F57 %30.31 in10.0 miSW (220°)3.5 mphClear
9:15 AM50.0 °F32.0 °F50 %30.31 in10.0 miSW (220°)5.8 mphClear
9:35 AM51.8 °F32.0 °F47 %30.32 in10.0 miSW (220°)9.2 mphClear
9:55 AM53.6 °F28.4 °F38 %30.32 in10.0 miSW (220°)11.5 mphClear
10:15 AM55.4 °F26.6 °F33 %30.32 in10.0 miSSW (200°)12.7 mphClear
10:35 AM57.2 °F26.6 °F31 %30.32 in10.0 miSW (230°)11.5 mph18.4 mphClear
10:55 AM59.0 °F26.6 °F29 %30.32 in10.0 miSSW (210°)10.4 mph16.1 mphClear
11:15 AM60.8 °F24.8 °F25 %30.31 in10.0 miSW (220°)9.2 mphClear
11:35 AM60.8 °F23.0 °F23 %30.31 in10.0 miWSW (240°)9.2 mphClear
11:55 AM62.6 °F23.0 °F22 %30.31 in10.0 miWSW (240°)13.8 mphClear
12:15 PM62.6 °F23.0 °F22 %30.30 in10.0 miSSW (210°)12.7 mphClear
12:35 PM64.4 °F23.0 °F21 %30.29 in10.0 miSW (230°)11.5 mph20.7 mphClear
12:55 PM66.2 °F23.0 °F19 %30.27 in10.0 miSSW (200°)11.5 mph17.3 mphClear
1:15 PM64.4 °F17.6 °F16 %30.25 in10.0 miSouth (190°)9.2 mphClear
1:35 PM66.2 °F17.6 °F15 %30.25 in10.0 miSW (220°)11.5 mphClear
1:55 PM68.0 °F15.8 °F13 %30.24 in10.0 miWSW (240°)10.4 mph16.1 mphClear
2:15 PM68.0 °F12.2 °F12 %30.24 in10.0 miWSW (240°)11.5 mph18.4 mphClear
2:35 PM68.0 °F14.0 °F12 %30.23 in10.0 miSW (220°)10.4 mphClear
2:55 PM68.0 °F12.2 °F12 %30.22 in10.0 miSSW (210°)10.4 mphClear
3:15 PM68.0 °F14.0 °F12 %30.22 in10.0 miSSW (210°)8.1 mphClear
3:35 PM68.0 °F14.0 °F12 %30.22 in10.0 miSouth (190°)11.5 mphClear
3:55 PM69.8 °F14.0 °F12 %30.22 in10.0 miSW (220°)11.5 mphClear
4:15 PM68.0 °F12.2 °F12 %30.22 in10.0 miSW (230°)10.4 mphClear
4:35 PM68.0 °F15.8 °F13 %30.22 in10.0 miSSW (210°)10.4 mphClear
4:55 PM68.0 °F17.6 °F15 %30.21 in10.0 miSW (220°)8.1 mphClear
5:15 PM68.0 °F17.6 °F15 %30.20 in10.0 miSSW (200°)8.1 mphClear
5:35 PM66.2 °F19.4 °F17 %30.21 in10.0 miSSW (200°)4.6 mphClear
5:55 PM62.6 °F21.2 °F20 %30.20 in10.0 miSouth (180°)6.9 mphClear
6:15 PM62.6 °F19.4 °F19 %30.21 in10.0 miSSW (200°)4.6 mphClear
6:35 PM60.8 °F21.2 °F22 %30.22 in10.0 miCalmClear
6:55 PM60.8 °F19.4 °F20 %30.23 in10.0 miCalmClear
7:15 PM57.2 °F21.2 °F25 %30.24 in10.0 miCalmClear
7:35 PM59.0 °F21.2 °F23 %30.25 in10.0 miSSE (150°)3.5 mphClear
7:55 PM53.6 °F26.6 °F35 %30.27 in10.0 miSouth (170°)5.8 mphClear
8:15 PM55.4 °F28.4 °F36 %30.28 in10.0 miSouth (180°)5.8 mphClear
8:35 PM55.4 °F30.2 °F38 %30.29 in10.0 miSouth (180°)4.6 mphClear
8:55 PM55.4 °F30.2 °F38 %30.29 in10.0 miSouth (180°)5.8 mphClear
9:15 PM53.6 °F32.0 °F44 %30.29 in10.0 miSouth (190°)5.8 mphClear
9:35 PM53.6 °F32.0 °F44 %30.30 in10.0 miSouth (180°)5.8 mphClear
9:55 PM53.6 °F32.0 °F44 %30.30 in10.0 miSouth (180°)5.8 mphClear
10:15 PM53.6 °F33.8 °F47 %30.30 in10.0 miSouth (190°)5.8 mphClear
10:35 PM53.6 °F33.8 °F47 %30.30 in10.0 miSouth (190°)5.8 mphClear
10:55 PM53.6 °F33.8 °F47 %30.30 in10.0 miSouth (180°)3.5 mphClear
11:15 PM53.6 °F33.8 °F47 %30.30 in10.0 miSouth (180°)3.5 mphClear
11:35 PM53.6 °F35.6 °F51 %30.30 in10.0 miSouth (170°)3.5 mphClear
11:55 PM53.6 °F35.6 °F51 %30.30 in10.0 miSouth (180°)3.5 mphClear
Hourly data recorded from K11R, located miles away from Kenney, Texas







STORIES FROM OUR PARTNERS